sat.trackr.live / text

‹ back to catalog

STARLINK-36672

NORAD 68674 · 2026-077N

PAYLOAD ACTIVE UNKNOWN

§ Identity

Operator
Country
US
Launch date
2026-04-11
Launch site
AFWTR
Launch vehicle
Mass (kg)
RCS (m²)

Purposes: comms

External: N2YO · Heavens-Above · Gunter

§ Orbital elements

Epoch: 2026-09-20T02:43:03.312192Z

Period
93.91 min
Inclination
97.2863°
Eccentricity
0.0001925
Mean motion
15.33445939 rev/d
Perigee alt
464.2 km
Apogee alt
466.9 km
Semi-major
6,843.7 km
B*
2.9812e-4
RAAN
133.0127°
Arg perigee
99.6708°
Mean anomaly
260.4753°
Rev number
2,495

§ Raw data

STARLINK-366721 68674U 26077N   26263.11323278  .00009562  00000+0  29812-3 0  99952 68674  97.2863 133.0127 0001925  99.6708 260.4753 15.33445939 24954

JSON: /api/v1/satellites/68674 · /tle

For live sub-satellite position, see the globe view (requires WebGL).

§ Visibility from observer

Set your observer location to see the next 7 days of passes ≥ 10°. The values pass through the URL so the page stays shareable.

No JS? Fill the form by hand. The geolocation button needs JavaScript.